Hourly Weather Bolshie Mihalki

Today, 20 June, Sunday

Time Temperature Precipitation Wind Pressure Humidity
00:00 +20°C° 0 mm 2 mps 748 mmHg 86%
01:00 +19°C° 0 mm 2 mps 748 mmHg 87%
02:00 +18°C° 0 mm 2 mps 748 mmHg 89%
03:00 +18°C° 0 mm 2 mps 748 mmHg 89%
04:00 +18°C° 0 mm 2 mps 748 mmHg 89%
05:00 +18°C° 0 mm 2 mps 748 mmHg 89%
06:00 +20°C° 0 mm 2 mps 748 mmHg 83%
07:00 +22°C° 0 mm 3 mps 748 mmHg 78%
08:00 +25°C° 0 mm 3 mps 748 mmHg 72%
09:00 +26°C° 0 mm 4 mps 748 mmHg 68%
10:00 +27°C° 0 mm 4 mps 748 mmHg 65%
11:00 +28°C° 0 mm 5 mps 748 mmHg 61%
12:00 +29°C° 0 mm 5 mps 748 mmHg 58%
13:00 +30°C° 0 mm 5 mps 747 mmHg 55%
14:00 +30°C° 0 mm 5 mps 747 mmHg 52%
15:00 +30°C° 0.1 mm 4 mps 747 mmHg 55%
16:00 +29°C° 0.1 mm 4 mps 747 mmHg 58%
17:00 +29°C° 0.1 mm 4 mps 746 mmHg 61%
18:00 +28°C° 0.1 mm 3 mps 746 mmHg 67%
19:00 +26°C° 0.1 mm 3 mps 746 mmHg 73%
20:00 +25°C° 0.1 mm 2 mps 746 mmHg 79%
21:00 +24°C° 0 mm 3 mps 746 mmHg 80%
22:00 +22°C° 0 mm 3 mps 746 mmHg 82%
23:00 +22°C° 0 mm 3 mps 746 mmHg 83%

Tomorrow, 21 June, Monday

Time Temperature Precipitation Wind Pressure Humidity
00:00 +21°C° 0 mm 3 mps 746 mmHg 86%
01:00 +20°C° 0 mm 3 mps 746 mmHg 89%
02:00 +19°C° 0 mm 2 mps 746 mmHg 92%
03:00 +19°C° 0 mm 3 mps 745 mmHg 92%
04:00 +19°C° 0 mm 3 mps 745 mmHg 92%
05:00 +18°C° 0 mm 3 mps 745 mmHg 92%
06:00 +20°C° 0 mm 3 mps 745 mmHg 87%
07:00 +21°C° 0 mm 4 mps 745 mmHg 81%
08:00 +23°C° 0 mm 4 mps 745 mmHg 76%
09:00 +25°C° 0 mm 5 mps 745 mmHg 71%
10:00 +26°C° 0 mm 5 mps 745 mmHg 65%
11:00 +27°C° 0 mm 5 mps 745 mmHg 60%
12:00 +28°C° 0.1 mm 5 mps 745 mmHg 60%
13:00 +28°C° 0.1 mm 5 mps 744 mmHg 61%
14:00 +28°C° 0.1 mm 6 mps 744 mmHg 61%
15:00 +28°C° 0.3 mm 5 mps 744 mmHg 63%
16:00 +28°C° 0.3 mm 5 mps 744 mmHg 64%
17:00 +27°C° 0.3 mm 4 mps 744 mmHg 66%
18:00 +26°C° 0.2 mm 4 mps 743 mmHg 71%
19:00 +25°C° 0.2 mm 3 mps 743 mmHg 76%
20:00 +24°C° 0.2 mm 3 mps 743 mmHg 82%
21:00 +22°C° 0 mm 3 mps 743 mmHg 85%
22:00 +21°C° 0 mm 2 mps 743 mmHg 88%
23:00 +20°C° 0 mm 2 mps 744 mmHg 91%

Day after tomorrow, 22 June, Tuesday

Time Temperature Precipitation Wind Pressure Humidity
00:00 +20°C° 0 mm 2 mps 743 mmHg 92%
01:00 +20°C° 0 mm 2 mps 743 mmHg 93%
02:00 +19°C° 0 mm 2 mps 743 mmHg 94%
03:00 +19°C° 0 mm 3 mps 743 mmHg 94%
04:00 +19°C° 0 mm 3 mps 743 mmHg 94%
05:00 +19°C° 0 mm 3 mps 743 mmHg 94%
06:00 +21°C° 0 mm 3 mps 743 mmHg 88%
07:00 +23°C° 0 mm 4 mps 744 mmHg 82%
08:00 +25°C° 0 mm 4 mps 744 mmHg 76%
09:00 +27°C° 0 mm 4 mps 744 mmHg 70%
10:00 +28°C° 0 mm 5 mps 744 mmHg 64%
11:00 +29°C° 0 mm 5 mps 744 mmHg 58%
12:00 +30°C° 0 mm 5 mps 744 mmHg 56%
13:00 +30°C° 0 mm 5 mps 744 mmHg 53%
14:00 +32°C° 0 mm 5 mps 744 mmHg 51%
15:00 +32°C° 0 mm 4 mps 744 mmHg 53%
16:00 +30°C° 0 mm 4 mps 744 mmHg 55%
17:00 +30°C° 0 mm 3 mps 744 mmHg 56%
18:00 +29°C° 0.1 mm 3 mps 744 mmHg 63%
19:00 +27°C° 0.1 mm 2 mps 745 mmHg 69%
20:00 +26°C° 0.1 mm 1 mps 745 mmHg 76%
21:00 +25°C° 0.1 mm 1 mps 745 mmHg 78%
22:00 +24°C° 0.1 mm 1 mps 745 mmHg 80%
23:00 +23°C° 0.1 mm 1 mps 745 mmHg 82%

23 June, Wednesday

Time Temperature Precipitation Wind Pressure Humidity
00:00 +23°C° 0 mm 1 mps 745 mmHg 83%
01:00 +22°C° 0 mm 1 mps 745 mmHg 85%
02:00 +22°C° 0 mm 1 mps 745 mmHg 86%
03:00 +22°C° 0 mm 1 mps 745 mmHg 86%
04:00 +22°C° 0 mm 1 mps 745 mmHg 85%
05:00 +22°C° 0 mm 1 mps 745 mmHg 85%
06:00 +24°C° 0.1 mm 2 mps 746 mmHg 81%
07:00 +25°C° 0.1 mm 2 mps 746 mmHg 77%
08:00 +27°C° 0.1 mm 2 mps 746 mmHg 73%
09:00 +28°C° 0 mm 2 mps 746 mmHg 68%
10:00 +29°C° 0 mm 3 mps 746 mmHg 63%
11:00 +31°C° 0 mm 3 mps 746 mmHg 59%
12:00 +31°C° 0.1 mm 3 mps 746 mmHg 57%
13:00 +33°C° 0.1 mm 3 mps 746 mmHg 54%
14:00 +33°C° 0.1 mm 4 mps 746 mmHg 52%
15:00 +33°C° 0 mm 3 mps 746 mmHg 55%
16:00 +33°C° 0 mm 3 mps 746 mmHg 57%
17:00 +33°C° 0 mm 3 mps 746 mmHg 59%
18:00 +30°C° 0.2 mm 3 mps 746 mmHg 66%
19:00 +29°C° 0.2 mm 3 mps 746 mmHg 72%
20:00 +27°C° 0.2 mm 3 mps 746 mmHg 78%
21:00 +26°C° 0.4 mm 2 mps 746 mmHg 80%
22:00 +25°C° 0.4 mm 2 mps 747 mmHg 83%
23:00 +24°C° 0.4 mm 2 mps 747 mmHg 85%

24 June, Thursday

Time Temperature Precipitation Wind Pressure Humidity
00:00 +23°C° 0.2 mm 2 mps 747 mmHg 86%
01:00 +23°C° 0.2 mm 2 mps 747 mmHg 88%
02:00 +23°C° 0.2 mm 2 mps 747 mmHg 89%
03:00 +22°C° 0.2 mm 1 mps 747 mmHg 89%
04:00 +22°C° 0.2 mm 1 mps 747 mmHg 90%
05:00 +22°C° 0.2 mm 1 mps 747 mmHg 90%
06:00 +23°C° 0 mm 1 mps 747 mmHg 85%
07:00 +24°C° 0 mm 2 mps 747 mmHg 79%
08:00 +25°C° 0 mm 2 mps 747 mmHg 74%
09:00 +27°C° 0 mm 2 mps 748 mmHg 69%
10:00 +28°C° 0 mm 2 mps 748 mmHg 65%
11:00 +30°C° 0 mm 1 mps 748 mmHg 61%
12:00 +30°C° 0.1 mm 2 mps 748 mmHg 59%
13:00 +31°C° 0.1 mm 2 mps 748 mmHg 57%
14:00 +32°C° 0.1 mm 2 mps 748 mmHg 55%
15:00 +31°C° 0.4 mm 2 mps 748 mmHg 57%
16:00 +31°C° 0.4 mm 1 mps 747 mmHg 59%
17:00 +31°C° 0.4 mm 1 mps 747 mmHg 61%
18:00 +29°C° 0.4 mm 1 mps 747 mmHg 67%
19:00 +28°C° 0.4 mm 1 mps 747 mmHg 74%
20:00 +27°C° 0.4 mm 2 mps 747 mmHg 80%
21:00 +25°C° 0.8 mm 2 mps 747 mmHg 85%
22:00 +24°C° 0.8 mm 2 mps 747 mmHg 89%
23:00 +21°C° 0.8 mm 2 mps 747 mmHg 94%

25 June, Friday

Time Temperature Precipitation Wind Pressure Humidity
00:00 +21°C° 0 mm 2 mps 746 mmHg 94%
01:00 +22°C° 0 mm 1 mps 746 mmHg 94%
02:00 +21°C° 0 mm 1 mps 746 mmHg 94%
03:00 +21°C° 0 mm 1 mps 746 mmHg 95%
04:00 +20°C° 0 mm 2 mps 746 mmHg 95%
05:00 +20°C° 0 mm 2 mps 745 mmHg 95%
06:00 +21°C° 0.2 mm 2 mps 746 mmHg 92%
07:00 +23°C° 0.2 mm 2 mps 746 mmHg 88%
08:00 +24°C° 0.2 mm 1 mps 746 mmHg 85%
09:00 +26°C° 0 mm 2 mps 745 mmHg 79%
10:00 +28°C° 0 mm 3 mps 745 mmHg 72%
11:00 +30°C° 0 mm 4 mps 745 mmHg 66%
12:00 +30°C° 1.9 mm 5 mps 745 mmHg 68%
13:00 +30°C° 1.9 mm 5 mps 745 mmHg 70%
14:00 +30°C° 1.9 mm 5 mps 744 mmHg 72%
15:00 +29°C° 1.1 mm 5 mps 744 mmHg 74%
16:00 +28°C° 1.1 mm 5 mps 744 mmHg 76%
17:00 +28°C° 1.1 mm 5 mps 744 mmHg 79%
18:00 +26°C° 0.4 mm 4 mps 744 mmHg 82%
19:00 +25°C° 0.4 mm 4 mps 745 mmHg 85%
20:00 +24°C° 0.4 mm 3 mps 745 mmHg 88%
21:00 +22°C° 0 mm 3 mps 745 mmHg 91%
22:00 +21°C° 0 mm 3 mps 745 mmHg 94%
23:00 +20°C° 0 mm 4 mps 746 mmHg 97%
Show more